Content
SEND FEEDBACK

Daily
Averages
Monthly
Summary
United States of America

CRESTLINE, CALIFORNIA


Home > North America > United States > California
Elevation: 5240 feet     Latitude: 34 14N     Longitude: 117 15W

WEATHER
 
SELECT A DAY
Number of Records: 168,301;   Date Range: 1/1/95 - 12/27/14
 
SHARE

PRINT THIS DATA

[ ← Previous Day ]
WEATHER ALMANAC - FEBRUARY 21, 2014
[ Next Day → ]
[ °C ]   °F
Weather ElementAverageHighLow
Temperature55.7 °F71.1 °F (2:50 pm)39 °F (6:50 am)
Dewpoint17.8 °F19.9 °F (1:50 am)15.1 °F (11:50 am)
Humidity24.7 %43 % (5:50 am)13 % (12:50 pm)
Barometer29.98 in30.07 in (8:50 am)29.89 in (4:50 pm)
Wind Speed4.3 mph8.1 mph (4:50 am)
Weather ElementAverage
Visibility10 mi
Wind DirectionSE (134.8 °)

Weather ElementTotal
Precipitation---
Heating Degree Days10 (Base 65)
Growing Degree Days5.1 (Base 50)
Averaged from 23 records on February 21, 2014
WEATHER CONDITIONS BREAKOUT
WIND DIRECTION BREAKOUT
WEATHER BY HOUR - FEBRUARY 21, 2014
[ °C ]   °F
Local TimeTemperatureDewpointHumidityBarometerVisibilityWind DirectionWind SpeedGust SpeedPrecipitationEventsConditions
1:50 AM46.0 °F19.9 °F35 %30.03 in10.0 miCalmClear
2:50 AM45.0 °F19.0 °F36 %30.02 in10.0 miWest (270°)6.9 mphClear
3:50 AM43.0 °F17.1 °F35 %30.04 in10.0 miWest (280°)6.9 mphClear
4:50 AM43.0 °F16.0 °F34 %30.04 in10.0 miWest (270°)8.1 mphClear
5:50 AM39.9 °F19.0 °F43 %30.04 in10.0 miWest (280°)6.9 mphClear
6:50 AM39.0 °F17.1 °F41 %30.06 in10.0 miSouth (190°)3.5 mphClear
7:50 AM48.0 °F18.0 °F30 %30.06 in10.0 miCalmClear
8:50 AM53.1 °F18.0 °F25 %30.07 in10.0 miCalmClear
9:50 AM57.9 °F18.0 °F21 %30.06 in10.0 miCalmClear
10:50 AM63.0 °F19.0 °F18 %30.05 in10.0 miENE (70°)3.5 mphClear
11:50 AM66.9 °F15.1 °F14 %30.02 in10.0 miNE (50°)6.9 mphClear
12:50 PM68.0 °F15.1 °F13 %29.98 in10.0 miNNE (30°)3.5 mphClear
1:50 PM70.0 °F16.0 °F13 %29.94 in10.0 miVariable3.5 mphClear
2:50 PM71.1 °F17.1 °F13 %29.92 in10.0 miNE (50°)5.8 mphClear
3:50 PM71.1 °F17.1 °F13 %29.90 in10.0 miENE (60°)5.8 mphClear
4:50 PM70.0 °F18.0 °F14 %29.89 in10.0 miENE (70°)4.6 mphClear
5:50 PM64.9 °F19.0 °F17 %29.90 in10.0 miESE (110°)4.6 mphClear
6:50 PM61.0 °F17.1 °F18 %29.91 in10.0 miCalmClear
7:50 PM57.0 °F19.9 °F24 %29.91 in10.0 miWest (280°)3.5 mphClear
8:50 PM53.1 °F19.0 °F26 %29.91 in10.0 miWest (280°)8.1 mphClear
9:50 PM52.0 °F18.0 °F26 %29.91 in10.0 miWSW (250°)4.6 mphClear
10:50 PM50.0 °F19.9 °F31 %29.91 in10.0 miWest (280°)6.9 mphClear
11:50 PM48.9 °F18.0 °F29 %29.90 in10.0 miWest (280°)5.8 mphClear
Hourly data recorded from KDAG, located miles away from Crestline, California







STORIES FROM OUR PARTNERS